Flag for U.S.A. Weather past 2 weeks in Kykotsmovi Village, Hopi, Arizona, U.S.A.

Now
40 °F

Clear.


Feels Like: 35 °F
Forecast: 42 / 74 °F
Wind: 7 mph from Southeast

Location: Winslow Municipal Airport

Current Time: Mar 31, 2015 at 6:40:14 AM

Latest Report: Mar 31, 2015 at 5:56 AM


Visibility: 10 mi

Pressure: 30.00 "Hg

Humidity: 49%

Dew point: 22 °F

Location of Kykotsmovi Village, HopiLocation

Historic Weather in Kykotsmovi Village, Hopi — Graph

°F

Kykotsmovi Village, Hopi temperature yesterday

Maximum temperature yesterday: 82 °F (at 2:56 PM)
Minimum temperature yesterday: 41 °F (at 5:56 AM)
Average temperature yesterday: 62 °F

Past Weeks' High & Low Weather Summary

 TemperatureHumidityPressure
High83 °F (Mar 28, 1:56 PM)97% (Mar 20, 4:56 AM)30.30 "Hg (Mar 20, 4:56 AM)
Low29 °F (Mar 26, 4:56 AM)3% (Mar 28, 2:56 PM)29.84 "Hg (Mar 18, 2:56 PM)
Average56 °F35%30.03 "Hg
* Reported Mar 16 4:56 AM — Mar 31 4:56 AM, Kykotsmovi Village, Hopi, Weather by CustomWeather, © 2015

Note: Actual official high and low records may vary slightly from our data, if they occured in-between our weather recording intervals... More about our weather records

Advertising

Kykotsmovi Village, Hopi weather history for previous 24 hours

 ConditionsComfort  
Time TempWeatherWind HumidityBarometerVisibility
4:56 AM
Tue, Mar 31
41 °FClear.5 mph47%29.98 "Hg10 mi
3:56 AM44 °FClear.3 mph41%29.97 "Hg10 mi
2:56 AM45 °FClear.No wind37%29.97 "Hg10 mi
1:56 AM46 °FClear.5 mph35%29.99 "Hg10 mi
12:56 AM52 °FClear.5 mph27%29.98 "Hg10 mi
11:56 PM
Mon, Mar 30
58 °FClear.3 mph23%29.96 "Hg10 mi
10:56 PM59 °FClear.15 mph22%29.95 "Hg10 mi
9:56 PM59 °FClear.12 mph22%29.98 "Hg10 mi
8:56 PM59 °FClear.10 mph23%30.01 "Hg10 mi
7:56 PM61 °FClear.10 mph19%30.00 "Hg10 mi
6:56 PM69 °FClear.12 mph12%29.97 "Hg10 mi
5:56 PM77 °FSunny.9 mph8%29.95 "Hg10 mi
4:56 PM79 °FSunny.8 mph8%29.93 "Hg10 mi
3:56 PM82 °FSunny.14 mph8%29.92 "Hg10 mi
2:56 PM82 °FSunny.14 mph8%29.94 "Hg10 mi
1:56 PM79 °FSunny.3 mph8%29.96 "Hg10 mi
12:56 PM78 °FSunny.3 mph9%30.00 "Hg10 mi
11:56 AM76 °FSunny.5 mph10%30.03 "Hg10 mi
10:56 AM75 °FSunny.5 mph11%30.06 "Hg10 mi
9:56 AM67 °FSunny.3 mph18%30.09 "Hg10 mi
8:56 AM57 °FSunny.6 mph26%30.12 "Hg10 mi
7:56 AM51 °FSunny.9 mph33%30.12 "Hg10 mi
6:56 AM43 °FSunny.7 mph45%30.11 "Hg10 mi
Weather by CustomWeather, © 2015

See weather overviewHow to use our weather pages